www.pogodaiklimat.ru

Погода и климат >> Архив погоды >> Канада >> Онтарио >> Тандер-Бэй аэропорт


ПОГОДА в Тандер-Бэй аэропорту

  • Прогноз погоды в Тандер-Бэй аэропорту
  • Монитор погоды в Тандер-Бэй аэропорту

АРХИВ ПОГОДЫ в Тандер-Бэй аэропорту

Время (UTC), дата Ветер
(напр.,м/с)
 
Видим.   Явления Облачность Т
(С)
Тd
(С)
f
(%)
Тe
(С)
Тes
(С)
Комфортность P
(гПа)
Po
(гПа)
Тmin
(С)
Tmax
(С)
R
(мм)
R24
(мм)
S
(см)
12 15.05 СВ 2 16 км ясно +7.9 +1.3 63 +7 +8 1016.6 992.4 +2.8 +21.5
15 15.05 ЮВ 4 16 км ясно +12.8 +1.0 44 +11 +18 1016.9 992.6
18 15.05 В 5 16 км ясно +14.6 -0.7 35 +13 +22 1015.7 991.5 +2.8 +15.1
21 15.05 ЮВ 5 16 км ясно +14.9 -1.8 32 +14 +20 1015.3 991.1
00 16.05 ЮВ 4 16 км 9/0
[]
+12.5 +0.3 43 +11 +11 1014.1 989.8 +2.8 +15.5
03 16.05 Ю 3 16 км 10/0
[]
+10.0 -2.4 42 +9 +9 1012.4 988.2
06 16.05 Ю 2 16 км слаб. дождь 10/0 2000 м
[]
+6.6 +1.9 72 +4 +4 1012.9 988.7 +2.8 +15.5 18
09 16.05 В 6 6000 м дождь {осадки} 10/0 2000 м
[]
+5.0 +2.5 84 0 0 1008.4 984.3
12 16.05 В 6 16 км {осадки} 10/10 600 м
[]
+3.7 +2.1 89 -2 -2 1005.8 981.6 +3.7 +15.5 5
15 16.05 СВ 3 16 км 10/10 300 м
[]
+5.7 +3.2 84 +3 +3 1004.6 980.5
18 16.05 СЗ 6 16 км 10/10 600 м
[]
+14.7 +7.4 62 +13 +13 1004.7 980.7 +3.7 +15.6
21 16.05 СЗ 6 16 км 9/9 1000 м
[]
+15.7 +6.3 54 +14 +15 1006.5 982.4
00 17.05 С 7 16 км ясно +12.6 +2.9 52 +10 +11 1009.7 985.4 +3.7 +16.9
03 17.05 СВ 1 16 км ясно +8.1 +0.4 58 +8 +8 1012.6 988.2
06 17.05 СВ 3 16 км ясно +4.0 +0.2 76 +1 +1 1013.8 989.5 +3.2 +16.9 221
09 17.05 З 2 16 км ясно -1.4 -1.7 98 -5 -5 1016.1 991.6
12 17.05 З 1 16 км ясно +1.9 -0.7 83 0 +2 1017.8 993.3 -2.3 +16.9
15 17.05 С 3 16 км 9/9 1000 м
[]
+6.9 -2.4 52 +5 +6 1017.3 992.8
18 17.05 З 4 16 км ясно +12.7 -3.2 33 +11 +24 опасность
простуды
1016.8 992.4 -2.3 +13.0
21 17.05 Ю 6 16 км ясно +12.2 -1.5 39 +10 +14 1016.1 991.6
00 18.05 Ю 3 16 км 3/0
[]
+11.9 -1.2 40 +11 +12 1016.1 991.6 -2.3 +13.9
03 18.05 Ю 4 16 км 9/0
[]
+5.3 -2.1 59 +2 +2 1017.6 993.1
06 18.05 З 2 16 км 10/0
[]
+2.5 -0.8 79 0 0 1017.4 992.9 -2.3 +13.9 20
09 18.05 З 2 16 км ясно -0.2 -0.9 95 -3 -3 1017.6 993.1
12 18.05 С 1 16 км 9/0
[]
+3.2 +0.4 82 +3 +4 1017.4 992.9 -1.2 +13.9
15 18.05 В 4 16 км 5/0
[]
+8.5 -0.3 54 +6 +11 1017.7 993.2
18 18.05 В 6 16 км 3/0
[]
+10.5 -0.1 48 +8 +13 1016.4 991.9 -1.2 +10.7
21 18.05 В 5 16 км 9/0 2000 м
[]
+8.9 -0.8 51 +6 +9 1017.1 992.5
00 19.05 В 3 16 км 10/0 2000 м
[]
+7.4 +0.3 61 +5 +6 1018.0 993.4 -1.2 +11.1
03 19.05 СВ 2 16 км 10/10 1000 м
[]
+5.9 +0.7 69 +4 +4 1019.3 994.8
06 19.05 СВ 4 16 км 3/0
[]
+4.3 -1.9 64 +1 +1 1018.4 993.9 -1.2 +11.1 17
09 19.05 СВ 7 16 км 10/0
[]
+5.6 -1.9 58 +1 +1 1018.0 993.5
12 19.05 СВ 5 16 км 10/0
[]
+4.7 -2.2 61 +1 +1 1018.0 993.4 +3.7 +11.1
15 19.05 СВ 6 16 км 10/0
[]
+5.7 -2.5 56 +1 +4 1016.4 991.9
18 19.05 СВ 7 16 км 3/0
[]
+7.8 -2.3 49 +4 +9 1015.1 990.6 +3.7 +7.8
21 19.05 СВ 6 16 км 9/9 1500 м
[]
+9.6 -1.5 46 +7 +7 1013.5 989.1
00 20.05 СВ 6 16 км 9/9 1500 м
[]
+10.2 -2.1 42 +7 +7 1013.1 988.7 +4.2 +10.4
03 20.05 С 4 16 км 9/0
[]
+8.0 -1.2 52 +5 +5 1014.3 989.9
06 20.05 С 3 16 км ясно +6.9 -1.3 56 +5 +5 1014.7 990.3 +4.2 +10.4 171
09 20.05 ЮЗ 3 16 км ясно +1.1 -1.7 82 -3 -3 1016.4 991.9
12 20.05 З 2 16 км ясно +6.1 +0.5 67 +4 +6 1018.4 993.9 +0.6 +10.4
15 20.05 СЗ 3 16 км 9/9 1500 м
[]
+11.6 +0.2 45 +10 +11 1019.7 995.3
18 20.05 СЗ 5 16 км 5/5 1500 м
[]
+16.5 +0.6 34 +16 +20 1018.6 994.3 +0.6 +16.6
21 20.05 В 5 16 км 9/0 2000 м
[]
+18.4 +0.9 31 +18 +22 1019.1 994.7
00 21.05 В 1 16 км 5/0
[]
+15.8 -0.9 32 +17 +18 1020.5 996.1 +0.6 +18.7
03 21.05 СВ 2 16 км ясно +8.4 +2.4 66 +7 +7 1021.1 996.7
06 21.05 З 2 16 км ясно +1.7 +0.2 90 -2 -2 1022.2 997.7 +0.6 +18.7 17
09 21.05 З 3 16 км ясно -0.4 -1.0 96 -5 -5 1022.8 998.3
12 21.05 З 2 16 км ясно +5.0 +2.1 81 +2 +4 1023.5 999.0 -0.8 +18.7
15 21.05 ЮЗ 2 16 км ясно +17.5 +0.4 31 +18 +30 опасность
простуды
1023.5 999.1
18 21.05 ЮВ 6 16 км ясно +19.9 -0.4 26 +20 +27 1022.3 997.9 -0.8 +20.0
21 21.05 ЮВ 6 16 км ясно +18.9 -0.3 27 +18 +23 1022.2 997.7
00 22.05 В 5 16 км ясно +16.0 -0.5 32 +15 +16 1020.6 996.2 -0.8 +20.5
03 22.05 В 2 16 км ясно +7.5 +2.1 69 +6 +6 1020.9 996.6
06 22.05 В 4 16 км 10/0
[]
+7.1 +3.0 75 +4 +4 1019.7 995.5 -0.8 +20.5 20
09 22.05 В 6 16 км 10/0
[]
+7.0 +2.5 73 +3 +3 1017.7 993.5

 

Местоположение метеостанции Тандер-Бэй аэропорт (Онтарио, Канада): широта 48.37 долгота -89.32 высота над уровнем моря 199 м.

В архиве по умолчанию представлена погода в Тандер-Бэй аэропорту за последнюю неделю. Архивные данные за месяц целиком и за предыдущие месяцы, начиная с января 2011 года, Вы можете получить, выбрав интересующий диапазон дат из раскрывающегося списка и нажав кнопку "Ввод!".


*Определитесь, кто Вы:
робот инопланетянин человек

Внимание! Время в таблицах - всемирное. Для получения местного времени необходимо прибавить поправку, которая равна -8 ч.

Смотрите также архив погоды в соседних городах и на ближайших метеорологических станциях:

Погода в Тандер-Бэе (Онтарио, Канада) (1 км)
Погода на Острове Уэлком (Онтарио, Канада) (16 км)
Погода в Иглшеме (Альберта, Канада) (35 км)
Погода в Упсала (Онтарио, Канада) (111 км)
Погода в Камерон Фоллс (Онтарио, Канада) (113 км)
Погода на Острове Кататота (Онтарио, Канада) (167 км)
Погода в Атикокане (Онтарио, Канада) (176 км)
Погода в Армстронге (Онтарио, Канада) (216 км)
Погода в Пекаскве (Онтарио, Канада) (224 км)
Погода в Джералдтоне (Онтарио, Канада) (234 км)

Пояснения к столбцам:

Ветер - указаны скорость ветра в м/с - средняя за 10 мин, порывы в срок и между сроками (в фигурных скобках) и направление, откуда дует ветер: С - северный, СВ - северо-восточный, В - восточный, ЮВ - юго-восточный, Ю - южный, ЮЗ - юго-западный, З - западный, СЗ - северо-западный.
Видимость - горизонтальная дальность видимости в метрах или километрах. При видимости от 1 до 10 км при отсутствии осадков обычно наблюдается дымка, при ухудшении видимости до 1 км и менее - туман. В сухую погоду видимость может ухудшаться дымом, пылью или мглою.
Явления - указаны атмосферные явления, наблюдавшиеся в срок или в последний час перед сроком; фигурными скобками обозначены явления, наблюдавшиеся между сроками (за 1-3 часа до срока); квадратными скобками обозначены град или гололедные отложения с указанием их диаметра в мм.
Облачность - указаны через наклонную черту общая и нижняя облачность в баллах и высота нижней границы облаков в метрах; квадратными скобками обозначены формы облаков: Ci - перистые, Cs - перисто-слоистые, Cc - перисто-кучевые, Ac - высококучевые, As - высокослоистые, Sc - слоисто-кучевые, Ns - слоисто-дождевые, Cu - кучевые, Cb - кучево-дождевые. Подробнее классификацию облаков см. в Атласе облаков (PDF).
T - Температура воздуха - температура, измеренная на высоте 2 м над землей.
Td - Температура точки росы - температура, при понижении до которой содержащийся в воздухе водяной пар достигнет насыщения.
f - Относительная влажность воздуха - влажноcть воздуха, измеренная на высоте 2 м над землей.
Te - Эффективная температура - температура, которую ощущает одетый по сезону человек в тени. Характеристика душности погоды. При расчете учитывается влияние влажности воздуха и скорости ветра на теплоощущения человека.
Tes - Эффективная температура на солнце - температура, которую ощущает человек, с поправкой на солнечный нагрев. Характеристика знойности погоды. Зависит от высоты солнца над горизонтом, облачности и скорости ветра. Ночью, в пасмурную погоду, а также при ветре 12 м/с и более поправка равна нулю.
P - Атмосферное давление - приведенное к уровню моря атмосферное давление.
Po - Атмосферное давление - измеренное на уровне метеостанции атмосферное давление.
Tmin - Минимальная температура - минимум температуры воздуха на высоте 2 м над землей.
Tmax - Максимальная температура - максимум температуры воздуха на высоте 2 м над землей.
R - Количество осадков - Количество выпавших осадков за период времени, мм. При наведении курсора мыши на число - период времени, за который выпало указанное количество осадков.
R24 - Количество осадков - Количество выпавших осадков за 24 часа, мм.
S - Снежный покров - Высота снежного покрова, см. При наведении курсора мыши на число - состояние снежного покрова и степень покрытия местности в баллах.